Time,TemperatureF,DewpointF,PressureIn,WindDirection,WindDirectionDegrees,WindSpeedMPH,WindSpeedGustMPH,Humidity,HourlyPrecipIn,Conditions,Clouds,dailyrainin,SoftwareType,DateUTC
2013-05-16 00:09:00,55.0,49.3,30.05,ESE,109,0.0,4.0,81,0.00,,,-99.99,Weather View 32 v60,2013-05-16 07:09:00,
2013-05-16 00:19:00,55.0,49.3,30.05,WSW,249,0.0,4.0,81,0.00,,,-99.99,Weather View 32 v60,2013-05-16 07:19:00,
2013-05-16 00:30:00,55.0,49.3,30.05,West,280,0.0,5.0,81,0.00,,,-99.99,Weather View 32 v60,2013-05-16 07:30:00,
2013-05-16 00:39:00,55.2,49.8,30.05,East,86,0.0,5.0,82,0.00,,,-99.99,Weather View 32 v60,2013-05-16 07:39:00,
2013-05-16 00:49:00,55.0,49.6,30.05,SSE,164,0.0,10.0,82,0.00,,,-99.99,Weather View 32 v60,2013-05-16 07:49:00,
2013-05-16 00:59:00,55.0,50.0,30.05,SSE,160,0.0,10.0,83,0.00,,,-99.99,Weather View 32 v60,2013-05-16 07:59:00,
2013-05-16 01:10:00,55.2,50.1,30.05,SSW,200,0.0,10.0,83,0.00,,,-99.99,Weather View 32 v60,2013-05-16 08:10:00,
2013-05-16 01:19:00,55.2,50.1,30.05,SW,219,0.0,10.0,83,0.00,,,-99.99,Weather View 32 v60,2013-05-16 08:19:00,
2013-05-16 01:29:00,55.6,50.5,30.05,SSE,163,0.0,10.0,83,0.00,,,-99.99,Weather View 32 v60,2013-05-16 08:29:00,
2013-05-16 01:39:00,55.6,50.5,30.05,East,91,0.0,10.0,83,0.00,,,-99.99,Weather View 32 v60,2013-05-16 08:39:00,
2013-05-16 01:49:00,55.6,50.5,30.02,WSW,256,0.0,4.0,83,0.00,,,-99.99,Weather View 32 v60,2013-05-16 08:49:00,
2013-05-16 01:59:00,55.4,50.3,30.02,WNW,289,3.0,4.0,83,0.00,,,-99.99,Weather View 32 v60,2013-05-16 08:59:00,
2013-05-16 02:09:00,55.4,50.6,30.02,SE,128,3.0,4.0,84,0.00,,,-99.99,Weather View 32 v60,2013-05-16 09:09:00,
2013-05-16 02:19:00,55.6,50.8,30.02,West,274,0.0,4.0,84,0.00,,,-99.99,Weather View 32 v60,2013-05-16 09:19:00,
2013-05-16 02:29:00,55.8,51.0,30.02,West,263,0.0,4.0,84,0.00,,,-99.99,Weather View 32 v60,2013-05-16 09:29:00,
2013-05-16 02:39:00,55.8,50.7,30.02,SW,223,0.0,4.0,83,0.00,,,-99.99,Weather View 32 v60,2013-05-16 09:39:00,
2013-05-16 02:49:00,55.9,50.8,30.02,SW,233,0.0,4.0,83,0.00,,,-99.99,Weather View 32 v60,2013-05-16 09:49:00,
2013-05-16 02:59:00,55.9,50.8,30.02,SSW,201,0.0,4.0,83,0.00,,,-99.99,Weather View 32 v60,2013-05-16 09:59:00,
2013-05-16 03:09:00,55.9,51.2,30.02,SW,216,0.0,4.0,84,0.00,,,-99.99,Weather View 32 v60,2013-05-16 10:09:00,
2013-05-16 03:19:00,55.9,51.2,30.02,SSW,205,0.0,5.0,84,0.00,,,-99.99,Weather View 32 v60,2013-05-16 10:19:00,
2013-05-16 03:29:00,55.9,51.2,30.02,SE,132,0.0,5.0,84,0.00,,,-99.99,Weather View 32 v60,2013-05-16 10:29:00,
2013-05-16 03:39:00,55.9,51.2,30.02,WSW,256,0.0,5.0,84,0.00,,,-99.99,Weather View 32 v60,2013-05-16 10:39:00,
2013-05-16 03:49:00,55.9,51.2,30.02,SW,216,0.0,5.0,84,0.00,,,-99.99,Weather View 32 v60,2013-05-16 10:49:00,
2013-05-16 03:59:00,55.9,51.2,30.02,ESE,104,0.0,5.0,84,0.00,,,-99.99,Weather View 32 v60,2013-05-16 10:59:00,
2013-05-16 04:05:00,55.9,51.2,30.02,ESE,104,0.0,5.0,84,0.00,,,-99.99,Weather View 32 v60,2013-05-16 11:05:00,
2013-05-16 04:19:00,56.1,51.3,30.02,WSW,247,0.0,7.0,84,0.00,,,-99.99,Weather View 32 v60,2013-05-16 11:19:00,
2013-05-16 04:29:00,56.1,51.3,30.02,SE,144,0.0,7.0,84,0.00,,,-99.99,Weather View 32 v60,2013-05-16 11:29:00,
2013-05-16 04:39:00,56.3,51.2,30.02,SSW,205,0.0,7.0,83,0.00,,,-99.99,Weather View 32 v60,2013-05-16 11:39:00,
2013-05-16 04:49:00,56.3,51.2,30.02,West,260,0.0,7.0,83,0.00,,,-99.99,Weather View 32 v60,2013-05-16 11:49:00,
2013-05-16 04:59:00,56.3,51.2,30.02,ESE,113,0.0,7.0,83,0.00,,,-99.99,Weather View 32 v60,2013-05-16 11:59:00,
2013-05-16 05:05:00,56.3,51.2,30.02,ESE,113,0.0,7.0,83,0.00,,,-99.99,Weather View 32 v60,2013-05-16 12:05:00,
2013-05-16 05:20:00,56.1,51.3,30.02,SSE,156,0.0,3.0,84,0.00,,,-99.99,Weather View 32 v60,2013-05-16 12:20:00,
2013-05-16 05:30:00,56.3,51.8,30.02,South,182,0.0,3.0,85,0.00,,,-99.99,Weather View 32 v60,2013-05-16 12:30:00,
2013-05-16 05:40:00,56.1,52.0,30.02,West,261,0.0,7.0,86,0.00,,,-99.99,Weather View 32 v60,2013-05-16 12:40:00,
2013-05-16 05:50:00,55.9,52.4,30.02,WSW,247,0.0,10.0,88,0.00,,,-99.99,Weather View 32 v60,2013-05-16 12:50:00,
2013-05-16 05:59:00,55.9,52.7,30.02,SW,230,0.0,10.0,89,0.00,,,-99.99,Weather View 32 v60,2013-05-16 12:59:00,
2013-05-16 06:06:00,55.9,52.7,30.02,SW,230,0.0,10.0,89,0.00,,,-99.99,Weather View 32 v60,2013-05-16 13:06:00,
2013-05-16 06:20:00,56.1,52.9,30.02,SSW,211,0.0,10.0,89,0.00,,,-99.99,Weather View 32 v60,2013-05-16 13:20:00,
2013-05-16 06:30:00,56.3,53.1,30.02,WSW,258,0.0,10.0,89,0.00,,,-99.99,Weather View 32 v60,2013-05-16 13:30:00,
2013-05-16 06:40:00,56.3,52.8,30.02,SSW,194,0.0,10.0,88,0.00,,,-99.99,Weather View 32 v60,2013-05-16 13:40:00,
2013-05-16 06:50:00,56.5,52.6,30.02,South,175,0.0,5.0,87,0.00,,,-99.99,Weather View 32 v60,2013-05-16 13:50:00,
2013-05-16 07:00:00,56.7,52.8,30.02,SSE,155,0.0,0.0,87,0.00,,,-99.99,Weather View 32 v60,2013-05-16 14:00:00,
2013-05-16 07:07:00,56.7,52.8,30.02,SSE,155,0.0,0.0,87,0.00,,,-99.99,Weather View 32 v60,2013-05-16 14:07:00,
2013-05-16 07:19:00,56.8,53.3,30.05,ENE,74,0.0,0.0,88,0.00,,,-99.99,Weather View 32 v60,2013-05-16 14:19:00,
2013-05-16 07:29:00,57.2,53.7,30.05,ENE,75,0.0,0.0,88,0.00,,,-99.99,Weather View 32 v60,2013-05-16 14:29:00,
2013-05-16 07:39:00,57.6,54.0,30.05,ENE,76,0.0,0.0,88,0.00,,,-99.99,Weather View 32 v60,2013-05-16 14:39:00,
2013-05-16 07:50:00,57.7,53.2,30.05,East,85,0.0,0.0,85,0.00,,,-99.99,Weather View 32 v60,2013-05-16 14:50:00,
2013-05-16 08:00:00,58.1,53.6,30.05,South,174,0.0,0.0,85,0.00,,,-99.99,Weather View 32 v60,2013-05-16 15:00:00,
2013-05-16 08:07:00,58.1,53.6,30.05,South,174,0.0,0.0,85,0.00,,,-99.99,Weather View 32 v60,2013-05-16 15:07:00,
2013-05-16 08:19:00,59.0,53.5,30.05,SSW,205,0.0,0.0,82,0.00,,,-99.99,Weather View 32 v60,2013-05-16 15:19:00,
2013-05-16 08:29:00,59.5,53.3,30.05,SW,217,0.0,0.0,80,0.00,,,-99.99,Weather View 32 v60,2013-05-16 15:29:00,
2013-05-16 08:39:00,59.9,53.0,30.05,SE,129,0.0,0.0,78,0.00,,,-99.99,Weather View 32 v60,2013-05-16 15:39:00,
2013-05-16 08:49:00,59.7,52.8,30.05,South,185,0.0,0.0,78,0.00,,,-99.99,Weather View 32 v60,2013-05-16 15:49:00,
2013-05-16 08:59:00,59.9,53.0,30.05,SW,221,0.0,0.0,78,0.00,,,-99.99,Weather View 32 v60,2013-05-16 15:59:00,
2013-05-16 09:08:00,59.9,53.0,30.05,SW,221,0.0,0.0,78,0.00,,,-99.99,Weather View 32 v60,2013-05-16 16:08:00,
2013-05-16 09:20:00,60.4,52.8,30.05,SSW,208,0.0,3.0,76,0.00,,,-99.99,Weather View 32 v60,2013-05-16 16:20:00,
2013-05-16 09:29:00,60.8,52.8,30.05,SE,133,0.0,3.0,75,0.00,,,-99.99,Weather View 32 v60,2013-05-16 16:29:00,
2013-05-16 09:39:00,61.5,52.8,30.05,South,175,0.0,3.0,73,0.00,,,-99.99,Weather View 32 v60,2013-05-16 16:39:00,
2013-05-16 09:49:00,62.1,52.9,30.05,SW,234,0.0,3.0,72,0.00,,,-99.99,Weather View 32 v60,2013-05-16 16:49:00,
2013-05-16 09:59:00,62.6,52.7,30.05,WSW,250,0.0,3.0,70,0.00,,,-99.99,Weather View 32 v60,2013-05-16 16:59:00,
2013-05-16 10:08:00,62.6,52.7,30.05,WSW,250,0.0,3.0,70,0.00,,,-99.99,Weather View 32 v60,2013-05-16 17:08:00,
2013-05-16 10:19:00,63.9,51.8,30.05,NNW,332,0.0,0.0,65,0.00,,,-99.99,Weather View 32 v60,2013-05-16 17:19:00,
2013-05-16 10:29:00,64.6,52.5,30.05,ENE,61,0.0,0.0,65,0.00,,,-99.99,Weather View 32 v60,2013-05-16 17:29:00,
2013-05-16 10:39:00,65.5,52.1,30.05,East,98,0.0,0.0,62,0.00,,,-99.99,Weather View 32 v60,2013-05-16 17:39:00,
2013-05-16 10:49:00,65.8,52.0,30.05,ESE,112,0.0,0.0,61,0.00,,,-99.99,Weather View 32 v60,2013-05-16 17:49:00,
2013-05-16 10:59:00,66.0,51.2,30.05,West,272,0.0,0.0,59,0.00,,,-99.99,Weather View 32 v60,2013-05-16 17:59:00,
2013-05-16 11:09:00,66.0,51.2,30.05,West,272,0.0,0.0,59,0.00,,,-99.99,Weather View 32 v60,2013-05-16 18:09:00,
2013-05-16 11:19:00,66.6,50.3,30.05,South,186,0.0,6.0,56,0.00,,,-99.99,Weather View 32 v60,2013-05-16 18:19:00,
2013-05-16 11:29:00,67.3,50.0,30.05,WNW,289,0.0,6.0,54,0.00,,,-99.99,Weather View 32 v60,2013-05-16 18:29:00,
2013-05-16 11:39:00,67.8,50.0,30.05,South,175,0.0,6.0,53,0.00,,,-99.99,Weather View 32 v60,2013-05-16 18:39:00,
2013-05-16 11:49:00,68.2,50.3,30.05,WSW,258,0.0,7.0,53,0.00,,,-99.99,Weather View 32 v60,2013-05-16 18:49:00,
2013-05-16 11:59:00,68.7,50.8,30.05,WSW,244,0.0,7.0,53,0.00,,,-99.99,Weather View 32 v60,2013-05-16 18:59:00,
2013-05-16 12:09:00,68.7,50.8,30.05,WSW,244,0.0,7.0,53,0.00,,,-99.99,Weather View 32 v60,2013-05-16 19:09:00,
2013-05-16 12:19:00,69.4,50.5,30.05,SSW,199,6.0,9.0,51,0.00,,,-99.99,Weather View 32 v60,2013-05-16 19:19:00,
2013-05-16 12:30:00,69.3,49.8,30.05,West,259,0.0,15.0,50,0.00,,,-99.99,Weather View 32 v60,2013-05-16 19:30:00,
2013-05-16 12:39:00,69.4,49.4,30.05,West,272,4.0,15.0,49,0.00,,,-99.99,Weather View 32 v60,2013-05-16 19:39:00,
2013-05-16 12:49:00,70.3,50.2,30.05,WNW,299,0.0,15.0,49,0.00,,,-99.99,Weather View 32 v60,2013-05-16 19:49:00,
2013-05-16 12:59:00,71.4,48.9,30.05,West,277,6.0,15.0,45,0.00,,,-99.99,Weather View 32 v60,2013-05-16 19:59:00,
2013-05-16 13:10:00,71.4,48.9,30.02,SW,229,4.0,15.0,45,0.00,,,-99.99,Weather View 32 v60,2013-05-16 20:10:00,
2013-05-16 13:19:00,72.7,48.2,30.02,SSW,198,0.0,15.0,42,0.00,,,-99.99,Weather View 32 v60,2013-05-16 20:19:00,
2013-05-16 13:29:00,72.3,47.9,30.02,WSW,242,3.0,12.0,42,0.00,,,-99.99,Weather View 32 v60,2013-05-16 20:29:00,
2013-05-16 13:39:00,71.6,48.5,30.02,SW,229,4.0,12.0,44,0.00,,,-99.99,Weather View 32 v60,2013-05-16 20:39:00,
2013-05-16 13:49:00,71.2,48.7,30.02,West,267,0.0,12.0,45,0.00,,,-99.99,Weather View 32 v60,2013-05-16 20:49:00,
2013-05-16 13:59:00,71.4,47.7,30.02,SW,214,7.0,12.0,43,0.00,,,-99.99,Weather View 32 v60,2013-05-16 20:59:00,
2013-05-16 14:09:00,72.5,49.3,30.02,West,263,0.0,12.0,44,0.00,,,-99.99,Weather View 32 v60,2013-05-16 21:09:00,
2013-05-16 14:19:00,73.4,48.2,30.02,SSW,209,0.0,12.0,41,0.00,,,-99.99,Weather View 32 v60,2013-05-16 21:19:00,
2013-05-16 14:29:00,73.6,47.0,30.02,WSW,238,6.0,12.0,39,0.00,,,-99.99,Weather View 32 v60,2013-05-16 21:29:00,
2013-05-16 14:39:00,72.9,47.7,30.02,NW,324,0.0,12.0,41,0.00,,,-99.99,Weather View 32 v60,2013-05-16 21:39:00,
2013-05-16 14:49:00,73.4,46.2,29.99,WSW,242,3.0,12.0,38,0.00,,,-99.99,Weather View 32 v60,2013-05-16 21:49:00,
2013-05-16 14:59:00,71.6,45.9,29.99,WSW,243,11.0,15.0,40,0.00,,,-99.99,Weather View 32 v60,2013-05-16 21:59:00,
2013-05-16 15:09:00,71.8,48.0,29.99,WSW,245,5.0,15.0,43,0.00,,,-99.99,Weather View 32 v60,2013-05-16 22:09:00,
2013-05-16 15:19:00,72.5,48.0,29.99,West,270,0.0,15.0,42,0.00,,,-99.99,Weather View 32 v60,2013-05-16 22:19:00,
2013-05-16 15:29:00,72.3,47.9,29.99,SW,226,0.0,15.0,42,0.00,,,-99.99,Weather View 32 v60,2013-05-16 22:29:00,
2013-05-16 15:39:00,70.7,44.5,30.02,WSW,240,6.0,15.0,39,0.00,,,-99.99,Weather View 32 v60,2013-05-16 22:39:00,
2013-05-16 15:49:00,70.2,46.6,29.99,WSW,258,7.0,15.0,43,0.00,,,-99.99,Weather View 32 v60,2013-05-16 22:49:00,
2013-05-16 15:59:00,70.3,46.1,29.99,NW,309,0.0,15.0,42,0.00,,,-99.99,Weather View 32 v60,2013-05-16 22:59:00,
2013-05-16 16:09:00,70.3,46.1,29.99,WSW,257,0.0,14.0,42,0.00,,,-99.99,Weather View 32 v60,2013-05-16 23:09:00,
2013-05-16 16:19:00,69.3,45.7,29.99,West,273,0.0,14.0,43,0.00,,,-99.99,Weather View 32 v60,2013-05-16 23:19:00,
2013-05-16 16:29:00,69.3,45.7,29.99,West,273,0.0,14.0,43,0.00,,,-99.99,Weather View 32 v60,2013-05-16 23:29:00,
2013-05-16 16:39:00,68.4,44.9,29.99,South,173,0.0,14.0,43,0.00,,,-99.99,Weather View 32 v60,2013-05-16 23:39:00,
2013-05-16 16:49:00,67.6,43.7,29.99,WSW,240,5.0,15.0,42,0.00,,,-99.99,Weather View 32 v60,2013-05-16 23:49:00,
2013-05-16 16:59:00,68.9,43.5,29.99,SW,218,4.0,15.0,40,0.00,,,-99.99,Weather View 32 v60,2013-05-16 23:59:00,
2013-05-16 17:10:00,69.1,43.7,29.99,South,186,0.0,15.0,40,0.00,,,-99.99,Weather View 32 v60,2013-05-17 00:10:00,
2013-05-16 17:19:00,68.7,42.0,29.99,West,268,7.0,15.0,38,0.00,,,-99.99,Weather View 32 v60,2013-05-17 00:19:00,
2013-05-16 17:29:00,68.7,42.0,29.99,West,268,7.0,15.0,38,0.00,,,-99.99,Weather View 32 v60,2013-05-17 00:29:00,
2013-05-16 17:40:00,67.3,42.7,29.99,WSW,239,7.0,15.0,41,0.00,,,-99.99,Weather View 32 v60,2013-05-17 00:40:00,
2013-05-16 17:50:00,66.4,43.1,29.99,East,91,0.0,15.0,43,0.00,,,-99.99,Weather View 32 v60,2013-05-17 00:50:00,
2013-05-16 18:00:00,65.8,42.7,29.99,ENE,70,0.0,19.0,43,0.00,,,-99.99,Weather View 32 v60,2013-05-17 01:00:00,
2013-05-16 18:10:00,65.3,42.8,29.99,West,276,7.0,19.0,44,0.00,,,-99.99,Weather View 32 v60,2013-05-17 01:10:00,
2013-05-16 18:19:00,65.5,43.5,29.99,SSW,204,0.0,19.0,45,0.00,,,-99.99,Weather View 32 v60,2013-05-17 01:19:00,
2013-05-16 18:30:00,65.1,43.8,29.99,SE,140,3.0,19.0,46,0.00,,,-99.99,Weather View 32 v60,2013-05-17 01:30:00,
2013-05-16 18:40:00,64.0,43.4,29.99,ENE,71,0.0,19.0,47,0.00,,,-99.99,Weather View 32 v60,2013-05-17 01:40:00,
2013-05-16 18:50:00,63.3,44.3,29.99,ESE,108,0.0,19.0,50,0.00,,,-99.99,Weather View 32 v60,2013-05-17 01:50:00,
2013-05-16 18:59:00,63.0,44.5,29.99,SSE,152,0.0,11.0,51,0.00,,,-99.99,Weather View 32 v60,2013-05-17 01:59:00,
2013-05-16 19:10:00,62.4,44.5,29.99,SW,218,0.0,10.0,52,0.00,,,-99.99,Weather View 32 v60,2013-05-17 02:10:00,
2013-05-16 19:20:00,61.7,44.4,29.99,WNW,288,0.0,9.0,53,0.00,,,-99.99,Weather View 32 v60,2013-05-17 02:20:00,
2013-05-16 19:29:00,61.0,44.7,29.99,ENE,70,0.0,9.0,55,0.00,,,-99.99,Weather View 32 v60,2013-05-17 02:29:00,
2013-05-16 19:39:00,60.8,45.0,29.99,South,187,0.0,9.0,56,0.00,,,-99.99,Weather View 32 v60,2013-05-17 02:39:00,
2013-05-16 19:49:00,60.4,44.6,29.99,SSE,165,0.0,9.0,56,0.00,,,-99.99,Weather View 32 v60,2013-05-17 02:49:00,
2013-05-16 19:59:00,59.9,45.1,29.99,SSW,199,0.0,7.0,58,0.00,,,-99.99,Weather View 32 v60,2013-05-17 02:59:00,
2013-05-16 20:10:00,59.2,46.1,29.99,SW,217,9.0,9.0,62,0.00,,,-99.99,Weather View 32 v60,2013-05-17 03:10:00,
2013-05-16 20:20:00,58.6,46.9,29.99,SW,219,0.0,9.0,65,0.00,,,-99.99,Weather View 32 v60,2013-05-17 03:20:00,
2013-05-16 20:30:00,58.3,46.9,29.99,West,270,0.0,9.0,66,0.00,,,-99.99,Weather View 32 v60,2013-05-17 03:30:00,
2013-05-16 20:39:00,57.9,47.0,30.02,West,269,0.0,9.0,67,0.00,,,-99.99,Weather View 32 v60,2013-05-17 03:39:00,
2013-05-16 20:49:00,57.6,47.1,30.02,WSW,244,0.0,9.0,68,0.00,,,-99.99,Weather View 32 v60,2013-05-17 03:49:00,
2013-05-16 20:59:00,57.4,47.3,30.02,SW,235,3.0,9.0,69,0.00,,,-99.99,Weather View 32 v60,2013-05-17 03:59:00,
2013-05-16 21:09:00,57.4,46.9,30.02,SW,233,0.0,12.0,68,0.00,,,-99.99,Weather View 32 v60,2013-05-17 04:09:00,
2013-05-16 21:20:00,57.2,47.1,30.02,WSW,239,4.0,12.0,69,0.00,,,-99.99,Weather View 32 v60,2013-05-17 04:20:00,
2013-05-16 21:30:00,56.8,46.8,30.02,WSW,257,6.0,12.0,69,0.00,,,-99.99,Weather View 32 v60,2013-05-17 04:30:00,
2013-05-16 21:31:00,56.8,46.8,30.02,WSW,257,6.0,12.0,69,0.00,,,-99.99,Weather View 32 v60,2013-05-17 04:31:00,
2013-05-16 21:39:00,56.7,47.0,30.02,SSW,203,0.0,12.0,70,0.00,,,-99.99,Weather View 32 v60,2013-05-17 04:39:00,
2013-05-16 21:49:00,56.5,46.8,30.02,WNW,290,6.0,12.0,70,0.00,,,-99.99,Weather View 32 v60,2013-05-17 04:49:00,
2013-05-16 21:59:00,56.1,46.4,30.02,West,273,0.0,12.0,70,0.00,,,-99.99,Weather View 32 v60,2013-05-17 04:59:00,
2013-05-16 22:09:00,56.1,46.4,30.02,South,185,0.0,11.0,70,0.00,,,-99.99,Weather View 32 v60,2013-05-17 05:09:00,
2013-05-16 22:19:00,55.9,46.7,30.02,SW,224,0.0,10.0,71,0.00,,,-99.99,Weather View 32 v60,2013-05-17 05:19:00,
2013-05-16 22:29:00,55.9,47.0,30.02,SW,220,0.0,10.0,72,0.00,,,-99.99,Weather View 32 v60,2013-05-17 05:29:00,
2013-05-16 22:39:00,55.8,46.5,30.02,West,262,0.0,10.0,71,0.00,,,-99.99,Weather View 32 v60,2013-05-17 05:39:00,
2013-05-16 22:49:00,55.8,46.5,30.02,WSW,246,7.0,10.0,71,0.00,,,-99.99,Weather View 32 v60,2013-05-17 05:49:00,
2013-05-16 22:59:00,55.8,46.5,30.02,SW,214,0.0,8.0,71,0.00,,,-99.99,Weather View 32 v60,2013-05-17 05:59:00,
2013-05-16 23:09:00,55.6,46.3,30.02,SW,230,0.0,9.0,71,0.00,,,-99.99,Weather View 32 v60,2013-05-17 06:09:00,
2013-05-16 23:19:00,55.6,46.3,30.02,WSW,237,0.0,9.0,71,0.00,,,-99.99,Weather View 32 v60,2013-05-17 06:19:00,
2013-05-16 23:29:00,55.4,46.1,30.02,SW,235,0.0,9.0,71,0.00,,,-99.99,Weather View 32 v60,2013-05-17 06:29:00,
2013-05-16 23:39:00,55.2,46.0,30.02,SW,229,0.0,9.0,71,0.00,,,-99.99,Weather View 32 v60,2013-05-17 06:39:00,
2013-05-16 23:49:00,55.2,46.0,30.02,WSW,239,0.0,9.0,71,0.00,,,-99.99,Weather View 32 v60,2013-05-17 06:49:00,
2013-05-16 23:59:00,55.0,46.2,30.02,WSW,241,0.0,9.0,72,0.00,,,-99.99,Weather View 32 v60,2013-05-17 06:59:00,